Location: Krakow
(50.0830°N, 19.9170°E)
Time: 21:01:59
(UTC+01:00)

Altair - Pass Details

Date: 08 December 2023
Orbit: 1501 x 1682 km, 47.2° (Epoch: 03 March)

Event Time Altitude Azimuth Distance (km) Brightness Sun altitude
Rises 15:09:59 0° 284° (WNW) 4,677 10.6 2.7°
Reaches altitude 10° 15:15:40 10° 256° (WSW) 3,665 10.8 2.0°
Maximum altitude 15:18:43 12° 236° (WSW) 3,490 11.6 1.7°
Drops below altitude 10° 15:21:47 10° 216° (SW) 3,646 11.3 1.3°
Sets 15:27:26 0° 189° (S) 4,623 10.8 0.6°
